Regional Weather Roundup
Issued by NWS

Home | Current Version | Previous Version | Text Only | Print | Product List | Glossary Off
Versions: 1 2 3 4 5 6 7 8 9 10 11 12 13 14 15 16 17 18 19 20 21 22 23 24 25 26 27 28 29 30 31 32 33 34 35 36 37 38 39 40 41 42 43 44 45 46 47 48 49 50

747
ASUS45 KCYS 101710
RWRWY

WYOMING REGIONAL WEATHER ROUNDUP
NATIONAL WEATHER SERVICE CHEYENNE WY
1000 AM MST WED FEB 10 2016

NOTE:  "FAIR" INDICATES FEW OR NO CLOUDS BELOW 12,000 FEET
WITH NO SIGNIFICANT WEATHER AND/OR OBSTRUCTIONS TO VISIBILITY.

WYZ001-101800-
YELLOWSTONE NATIONAL PARK

CITY           SKY/WX    TMP DP  RH WIND       PRES   REMARKS
LK YELLOWSTONE   N/A     18  15  88 CALM      30.37F
W YELLOWSTONE  NOT AVBL

$$
WYZ002>013-054>058-071-098>099-101800-
NORTHERN WYOMING

CITY           SKY/WX    TMP DP  RH WIND       PRES   REMARKS
JACKSON        FOG        9   7  92 CALM      30.42S VSB 1/2
CODY           FAIR      55  14  19 W20G29    30.12S
GREYBULL       FAIR      28  23  81 SW5       30.16R WCI  23
WORLAND        FAIR      27  24  89 SW5       30.15S WCI  22
SHERIDAN       MOSUNNY   55  18  22 NW3       30.02R
BUFFALO        FAIR      55  13  18 CALM      30.07R
GILLETTE       FAIR      52  20  28 NW14      30.03R
HULETT         FAIR      50  21  32 W7G18     30.03R
NEWCASTLE      FAIR      52  19  28 NW15      30.02S

$$
WYZ014>020-022>026-101>103-101800-
CENTRAL WYOMING

CITY           SKY/WX    TMP DP  RH WIND       PRES   REMARKS
BIG PINEY      FAIR      19  11  70 E3        30.36S
PINEDALE       FAIR      23  12  63 NW7       30.36S WCI  15
DUBOIS         FAIR      41   9  26 NW21      30.25R
LANDER         FAIR      40  17  39 S5        30.17S
RIVERTON       FAIR      26  20  77 CALM      30.18S
CASPER         LGT RAIN  40  20  44 SW22G39   30.13S WCI  30
DOUGLAS        FAIR      49  22  34 NW16        N/A

$$
WYZ021-027>030-104>119-101800-
SOUTHERN WYOMING

CITY           SKY/WX    TMP DP  RH WIND       PRES   REMARKS
EVANSTON       FAIR      26  14  60 S8        30.39F WCI  18
FORT BRIDGER   SUNNY     36  12  38 W10       30.39  WCI  28
ROCK SPRINGS   FAIR      28  14  55 W8        30.35S WCI  20
DIXON          FAIR      16   8  70 CALM      30.44S
RAWLINS        FAIR      39  17  41 SW28G38   30.27F WCI  28
SARATOGA       FAIR      34  18  51 SE13G18   30.32S WCI  25
LARAMIE        FAIR      46  15  28 S6        30.23F
CHEYENNE       FAIR      51  16  24 W23G31    30.16R
TORRINGTON     FAIR      54  21  27 W17G28    30.06S
PINE BLUFFS    FAIR      54  19  26 W29       30.10S

$$




USA.gov is the U.S. government's official web portal to all federal, state and local government web resources and services.